Lancaster, PA

5:33 PM EDT on April 25, 2017 (GMT -0400)
Lancaster

Weather History for KLNS - October, 2014

Change the Weather History Date:

Monday, October 20, 2014

  Actual Average Record
Temperature  
Mean Temperature 46 °F -  
Max Temperature 60 °F 61 °F 79 °F (2016)
Min Temperature 33 °F 41 °F 26 °F (1981)
Degree Days  
Heating Degree Days 19    
Moisture  
Dew Point 39 °F    
Average Humidity 72    
Maximum Humidity 92    
Minimum Humidity 49    
Precipitation  
Precipitation 0.00 in - - ()
Sea Level Pressure  
Sea Level Pressure 30.03 in    
Wind  
Wind Speed 4 mph (South)    
Max Wind Speed 12 mph    
Max Gust Speed 18 mph    
Visibility 10 miles    
Events Rain    
Averages and records for this station are not official NWS values.
T = Trace of Precipitation, MM = Missing Value Source: NWS Daily Summary

Daily Weather History Graph

Daily Weather History Graph

Search for Another Location

Airport or City:

Trip Planner

Search our weather history database for the weather conditions in past years. The results will help you decide how hot, cold, wet, or windy it might be!

Date:

Astronomy

Oct. 20, 2014 Rise Set
Actual Time 7:21 AM EDT 6:18 PM EDT
Civil Twilight 6:53 AM EDT 6:45 PM EDT
Nautical Twilight 6:21 AM EDT 7:17 PM EDT
Astronomical Twilight 5:50 AM EDT 7:48 PM EDT
Moon 4:07 AM EDT (10/20) 4:39 PM EDT (10/20)
Length of Visible Light 11h 52m
Length of Day
10h 57m
Waning Crescent, 10% of the Moon is Illuminated
Oct 20
Waning Crescent
Oct 23
New
Oct 30
First Quarter
Nov 6
Full
Nov 14
Last Quarter

Hourly Weather History & Observations

Time (EDT) Temp. Windchill Dew Point Humidity Pressure Visibility Wind Dir Wind Speed Gust Speed Precip Events Conditions
12:53 AM 41.0 °F 39.0 °F 32.0 °F 70% 30.09 in 10.0 mi SW 3.5 mph - N/A   Clear
1:53 AM 37.0 °F - 34.0 °F 89% 30.10 in 10.0 mi Calm Calm - N/A   Clear
2:53 AM 37.0 °F - 34.0 °F 89% 30.10 in 10.0 mi Calm Calm - N/A   Clear
3:53 AM 37.9 °F - 34.0 °F 86% 30.09 in 10.0 mi Calm Calm - N/A   Clear
4:53 AM 35.1 °F 32.2 °F 32.0 °F 89% 30.10 in 9.0 mi East 3.5 mph - N/A   Clear
5:53 AM 35.1 °F - 33.1 °F 92% 30.10 in 10.0 mi Calm Calm - N/A   Clear
6:53 AM 33.1 °F - 30.9 °F 92% 30.11 in 7.0 mi Calm Calm - N/A   Clear
7:53 AM 35.1 °F 32.2 °F 33.1 °F 92% 30.12 in 6.0 mi ESE 3.5 mph - N/A   Clear
8:53 AM 41.0 °F - 37.0 °F 86% 30.12 in 8.0 mi Calm Calm - N/A   Clear
9:53 AM 48.0 °F - 37.0 °F 66% 30.12 in 10.0 mi Variable 3.5 mph - N/A   Clear
10:53 AM 52.0 °F - 37.0 °F 57% 30.09 in 10.0 mi South 11.5 mph - N/A   Clear
11:53 AM 55.0 °F - 37.0 °F 51% 30.07 in 10.0 mi SSW 10.4 mph - N/A   Clear
12:53 PM 57.9 °F - 41.0 °F 53% 30.05 in 10.0 mi South 9.2 mph - N/A   Clear
1:53 PM 59.0 °F - 39.9 °F 49% 30.00 in 10.0 mi South 10.4 mph 18.4 mph N/A   Clear
2:53 PM 59.0 °F - 41.0 °F 51% 29.97 in 10.0 mi SSW 9.2 mph - N/A   Clear
3:53 PM 59.0 °F - 42.1 °F 53% 29.96 in 10.0 mi South 9.2 mph - N/A   Clear
4:53 PM 57.9 °F - 43.0 °F 58% 29.96 in 10.0 mi South 9.2 mph - N/A   Clear
5:53 PM 55.9 °F - 44.1 °F 64% 29.95 in 10.0 mi SE 4.6 mph - N/A   Clear
6:53 PM 54.0 °F - 44.1 °F 69% 29.96 in 10.0 mi SSE 5.8 mph - N/A   Clear
7:53 PM 55.0 °F - 44.1 °F 67% 29.96 in 10.0 mi SSE 3.5 mph - N/A   Clear
8:53 PM 53.1 °F - 45.0 °F 74% 29.96 in 10.0 mi Calm Calm - N/A   Mostly Cloudy
9:53 PM 55.0 °F - 46.0 °F 72% 29.96 in 10.0 mi South 5.8 mph - N/A   Overcast
10:53 PM 55.9 °F - 48.0 °F 75% 29.96 in 10.0 mi SSW 10.4 mph - 0.00 in Rain Light Rain
11:53 PM 54.0 °F - 48.0 °F 80% 29.93 in 10.0 mi South 9.2 mph - 0.00 in   Overcast